{"data":{"norad_id":40362,"intl_designator":"2014-088A","name":"YAOGAN-26","alt_names":[],"object_type":"PAYLOAD","status":"ACTIVE","operator":null,"country":"PRC","launch_date":"2014-12-27","launch_site_code":"TAISC","launch_vehicle":null,"mission":null,"orbit_class":"UNKNOWN","rcs_meters":4.769,"size_class":null,"mass_kg":null,"dimensions":null,"purposes":["earth_obs"],"wikipedia_slug":null,"has_3d_model":false,"image_url":null,"decayed_at":null,"tle_current":{"epoch":"2026-09-20T03:37:44.958720Z","epoch_age_seconds":48478,"freshness":"FRESH","line1":"1 40362U 14088A   26263.15121480  .00018596  00000+0  32200-3 0  9995","line2":"2 40362  97.0707 261.4066 0005591  71.6483 288.5377 15.50947629652406","mean_motion":15.50947629,"eccentricity":0.0005591,"inclination_deg":97.0707,"raan_deg":261.4066,"arg_perigee_deg":71.6483,"mean_anomaly_deg":288.5377,"bstar":0.000322,"rev_number":65240,"period_min":92.846461935563,"perigee_km":410.16055274725,"apogee_km":417.75547339087,"semimajor_km":6792.0950130691,"source":"CELESTRAK","updated_at":"2026-09-20T09:00:33.963226Z"}}}